DW5499 Weather Reports


Display with metric or nautical units.
time (UTC)temp
F
wind
direction
speed
MPH
gust
MPH
rain 1hr
in
rain 24hr
in
rain mn
in
humidity
%
barometer
mb
20260905024557 88 160 1.0 3.0 0.00 0.00 0.00 63 1011.3
20260905023047 89 166 0.0 3.0 0.00 0.00 0.00 66 1011.1
20260905021546 88 166 0.0 2.0 0.00 0.00 0.00 66 1011.0
20260905020053 89 166 0.0 3.0 0.00 0.00 0.00 63 1010.8
20260905014545 90 193 0.0 3.0 0.00 0.00 0.00 62 1010.7
20260905013045 91 246 1.0 3.0 0.00 0.00 0.00 59 1010.5
20260905011544 92 185 2.0 4.0 0.00 0.00 0.00 56 1010.4
20260905010044 94 162 1.0 5.0 0.00 0.00 0.00 53 1010.2
20260905004543 94 177 0.0 4.0 0.00 0.00 0.00 52 1010.2
20260905003043 95 185 2.0 4.0 0.00 0.00 0.00 50 1010.3
20260905001543 97 173 1.0 5.0 0.00 0.00 0.00 47 1010.3
20260905000042 98 159 3.0 5.0 0.00 0.00 0.00 46 1010.3
20260904234540 98 122 2.0 6.0 0.00 0.00 0.00 45 1010.4
20260904233040 98 160 3.0 8.0 0.00 0.00 0.00 45 1010.4
20260904231557 99 180 2.0 10.0 0.00 0.00 0.00 44 1010.5
20260904230039 98 167 3.0 9.0 0.00 0.00 0.00 44 1010.6
20260904224538 99 183 5.0 11.0 0.00 0.00 0.00 44 1010.5
20260904223039 99 162 5.0 12.0 0.00 0.00 0.00 44 1010.5
20260904221545 98 149 5.0 10.0 0.00 0.00 0.00 43 1010.4
20260904220038 98 191 7.0 12.0 0.00 0.00 0.00 43 1010.6
20260904214536 98 174 8.0 14.0 0.00 0.00 0.00 43 1010.6
20260904213036 98 143 5.0 12.0 0.00 0.00 0.00 44 1010.6
20260904211534 98 167 4.0 11.0 0.00 0.00 0.00 44 1010.9
20260904210036 97 175 3.0 12.0 0.00 0.00 0.00 46 1010.9
20260904204534 98 212 7.0 12.0 0.00 0.00 0.00 44 1011.0
20260904203040 97 168 8.0 14.0 0.00 0.00 0.00 46 1011.2
20260904201530 97 196 6.0 12.0 0.00 0.00 0.00 45 1011.3
20260904200050 96 146 2.0 10.0 0.00 0.00 0.00 46 1011.5
20260904194532 97 161 5.0 12.0 0.00 0.00 0.00 46 1011.7
20260904193027 95 120 5.0 13.0 0.00 0.00 0.00 47 1011.8
20260904191532 95 168 5.0 14.0 0.00 0.00 0.00 48 1011.9
20260904190024 94 113 8.0 14.0 0.00 0.00 0.00 48 1012.0
20260904184521 94 184 7.0 15.0 0.00 0.00 0.00 48 1012.2
20260904183019 94 218 5.0 12.0 0.00 0.00 0.00 50 1012.1
20260904181520 92 252 8.0 17.0 0.00 0.00 0.00 51 1012.2
20260904180026 92 167 10.0 17.0 0.00 0.00 0.00 50 1012.3
20260904174517 93 183 7.0 15.0 0.00 0.00 0.00 51 1012.5
20260904173016 92 145 6.0 12.0 0.00 0.00 0.00 53 1012.6
20260904171512 90 203 8.0 22.0 0.00 0.00 0.00 54 1012.6
20260904170012 91 136 7.0 17.0 0.00 0.00 0.00 56 1012.8
20260904164510 91 135 7.0 15.0 0.00 0.00 0.00 55 1013.0
20260904163016 90 147 6.0 12.0 0.00 0.00 0.00 57 1012.9
20260904161506 89 214 6.0 13.0 0.00 0.00 0.00 59 1012.9
20260904160004 88 139 6.0 12.0 0.00 0.00 0.00 60 1012.9
20260904154613 87 208 8.0 16.0 0.00 0.00 0.00 63 1013.0
20260904154500 87 233 8.0 16.0 0.00 0.00 0.00 62 1013.0
20260904153100 86 225 5.0 14.0 0.00 0.00 0.00 64 1013.1
20260904151558 85 220 5.0 17.0 0.00 0.00 0.00 65 1013.1
20260904150057 85 209 5.0 12.0 0.00 0.00 0.00 66 1013.0
20260904144556 84 144 3.0 12.0 0.00 0.00 0.00 68 1012.9
20260904143057 83 203 7.0 12.0 0.00 0.00 0.00 68 1013.0
20260904141600 82 219 7.0 12.0 0.00 0.00 0.00 70 1013.0
20260904140107 82 214 5.0 10.0 0.00 0.00 0.00 71 1013.1
20260904134612 80 204 3.0 7.0 0.00 0.00 0.00 73 1013.2
20260904133056 80 222 3.0 8.0 0.00 0.00 0.00 74 1013.1
20260904131552 79 156 3.0 6.0 0.00 0.00 0.00 76 1013.1
20260904130052 78 160 1.0 4.0 0.00 0.00 0.00 78 1013.0
20260904124601 77 140 1.0 3.0 0.00 0.00 0.00 80 1012.9
20260904123058 76 138 0.0 3.0 0.00 0.00 0.00 82 1012.8
20260904121552 75 138 0.0 2.0 0.00 0.00 0.00 82 1012.6
20260904120044 76 138 0.0 2.0 0.00 0.00 0.00 81 1012.3
20260904114544 76 135 1.0 3.0 0.00 0.00 0.00 79 1012.2
20260904113041 76 195 0.0 3.0 0.00 0.00 0.00 78 1012.0
20260904111542 77 126 2.0 4.0 0.00 0.00 0.00 77 1011.8
20260904110037 77 173 1.0 5.0 0.00 0.00 0.00 76 1011.7
20260904104535 77 148 2.0 5.0 0.00 0.00 0.00 76 1011.7
20260904103034 78 130 2.0 6.0 0.00 0.00 0.00 75 1011.6
20260904101532 78 189 2.0 6.0 0.00 0.00 0.00 75 1011.4
20260904100033 77 187 1.0 4.0 0.00 0.00 0.00 76 1011.4
20260904094547 78 153 3.0 5.0 0.00 0.00 0.00 76 1011.3
20260904093030 77 141 1.0 3.0 0.00 0.00 0.00 77 1011.2
20260904091527 78 151 1.0 3.0 0.00 0.00 0.00 77 1010.9
20260904090040 78 126 1.0 3.0 0.00 0.00 0.00 73 1010.8
20260904084523 79 149 1.0 3.0 0.00 0.00 0.00 72 1010.6
20260904083032 80 152 1.0 3.0 0.00 0.00 0.00 71 1010.6
20260904081528 81 164 2.0 4.0 0.00 0.00 0.00 68 1010.6
20260904080012 83 158 2.0 7.0 0.00 0.00 0.00 65 1010.5
20260904074510 84 188 2.0 5.0 0.00 0.00 0.00 64 1010.6
20260904073008 84 172 2.0 4.0 0.00 0.00 0.00 63 1010.6
20260904071508 84 166 2.0 4.0 0.00 0.00 0.00 62 1010.6
20260904070008 84 189 2.0 6.0 0.00 0.00 0.00 62 1010.6
20260904064505 84 214 3.0 7.0 0.00 0.00 0.00 62 1010.8
20260904063010 85 162 3.0 6.0 0.00 0.00 0.00 61 1010.8
20260904061507 84 220 3.0 8.0 0.00 0.00 0.00 61 1010.7
20260904060004 85 216 5.0 10.0 0.00 0.00 0.00 61 1010.7
20260904054502 85 167 4.0 7.0 0.00 0.00 0.00 60 1010.7
20260904053105 85 171 2.0 6.0 0.00 0.00 0.00 60 1010.7
20260904051559 86 180 2.0 5.0 0.00 0.00 0.00 59 1010.6
20260904050058 86 136 3.0 4.0 0.00 0.00 0.00 60 1010.4
20260904044555 86 176 2.0 5.0 0.00 0.00 0.00 60 1010.4
20260904043100 86 202 2.0 4.0 0.00 0.00 0.00 59 1010.3
20260904041553 87 112 0.0 3.0 0.00 0.00 0.00 59 1010.3
20260904040105 87 199 1.0 3.0 0.00 0.00 0.00 58 1010.2
20260904034553 88 126 0.0 2.0 0.00 0.00 0.00 59 1010.3
20260904033053 89 170 0.0 3.0 0.00 0.00 0.00 54 1010.3
20260904031557 89 162 0.0 4.0 0.00 0.00 0.00 54 1010.3
20260904030053 90 188 2.0 4.0 0.00 0.00 0.00 54 1010.2